This is the latest recevied weather packets stored in our database for station/object N3FYI-5. If no packets are shown the sender has not sent any weather packets the latest 10 day(s).
| Time | Temp. | Humidity | Pressure | Rain* | Wind** | Luminosity | Snow |
|---|---|---|---|---|---|---|---|
| 1777593898 | 3.33° C | 81% | 1021.6 hPa | 0.51 mm | - | - | - |
| 1777593412 | 3.33° C | 83% | 1021.5 hPa | 0.51 mm | - | - | - |
| 1777592932 | 3.89° C | 86% | 1021.3 hPa | 0.51 mm | - | - | - |
| 1777592452 | 3.89° C | 87% | 1021.3 hPa | 0.51 mm | - | - | - |
| 1777591972 | 4.44° C | 87% | 1021.2 hPa | 0 mm | - | - | - |
| 1777591493 | 4.44° C | 87% | 1021 hPa | 0 mm | - | - | - |
| 1777591012 | 5° C | 87% | 1021.1 hPa | 0 mm | - | - | - |
| 1777590532 | 5° C | 87% | 1020.9 hPa | 0 mm | - | - | - |
| 1777590059 | 5° C | 87% | 1020.8 hPa | 0 mm | - | - | - |
| 1777589571 | 5° C | 87% | 1020.7 hPa | 0 mm | - | - | - |
| 1777589092 | 5° C | 87% | 1020.6 hPa | 0 mm | - | - | - |
| 1777588612 | 5° C | 87% | 1020.6 hPa | 0.25 mm | - | - | - |
| 1777588131 | 5° C | 86% | 1020.5 hPa | 0.51 mm | - | - | - |
| 1777587658 | 5° C | 85% | 1020.5 hPa | 0.51 mm | - | - | - |
| 1777587171 | 5° C | 82% | 1020.5 hPa | 0.51 mm | - | - | - |
| 1777586691 | 4.44° C | 79% | 1020.5 hPa | 0.51 mm | - | - | - |
| 1777586211 | 4.44° C | 81% | 1020.5 hPa | 0.51 mm | - | - | - |
| 1777585731 | 4.44° C | 82% | 1020.3 hPa | 0.51 mm | - | - | - |
| 1777585251 | 4.44° C | 85% | 1020.2 hPa | 0.51 mm | - | - | - |
| 1777584383 | 5° C | 86% | 1020.2 hPa | 0 mm | - | - | - |
| 1777583898 | 5.56° C | 86% | 1020.2 hPa | 0 mm | - | - | - |
| 1777583420 | 5.56° C | 86% | 1019.8 hPa | 0 mm | - | - | - |
| 1777582938 | 5.56° C | 85% | 1019.7 hPa | 0.25 mm | - | - | - |
| 1777582459 | 5.56° C | 87% | 1019.7 hPa | 0.25 mm | - | - | - |
| 1777581982 | 5.56° C | 87% | 1019.6 hPa | 0.25 mm | - | - | - |
* Rain latest hour (hover to see other rain measurements)
** Current wind speed in m/s (hover to see current wind gust speed)